FW2240 Weather Reports


time (UTC)temp
F
wind
direction
speed
knots
gust
knots
rain 1hr
in
rain 24hr
in
rain mn
in
humidity
%
barometer
mb
20260504185502 61 133 1.7 4.3 0.00 0.00 0.00 76 1004.2
20260504184834 51 142 0.9 4.3 0.00 0.00 0.00 82 1003.4
20260504184211 55 130 1.7 4.3 0.00 0.00 0.00 74 1003.2
20260504183545 59 148 1.7 3.5 0.00 0.00 0.00 69 1003.2
20260504182851 81 141 0.9 3.5 0.00 0.00 0.00 41 1004.1
20260503233404 85 273 0.0 0.9 0.00 0.00 0.00 39 1004.8
20260503232848 73 273 0.0 0.9 0.00 0.00 0.00 57 1005.4
20260503213148 74 131 0.0 3.5 0.00 0.00 0.00 53 1006.2
20260503202849 71 100 1.7 3.5 0.00 0.00 0.00 55 1007.0
20260503202101 71 212 0.0 3.5 0.00 0.00 0.00 58 1007.1
20260503201556 71 65 0.9 3.5 0.00 0.00 0.00 60 1007.3
20260503200557 70 82 0.9 3.5 0.00 0.00 0.00 59 1007.3
20260503195602 71 95 0.9 3.5 0.00 0.00 0.00 60 1007.5
20260503194603 70 248 0.0 2.6 0.00 0.00 0.00 60 1007.5
20260503193549 70 60 0.9 3.5 0.00 0.00 0.00 59 1007.5
20260503192553 70 54 0.9 3.5 0.00 0.00 0.00 59 1007.5
20260503192034 70 122 1.7 3.5 0.00 0.00 0.00 61 1007.5
20260503191253 69 44 1.7 3.5 0.00 0.00 0.00 61 1007.4
20260503190557 69 68 0.0 3.5 0.00 0.00 0.00 61 1007.4
20260503190107 69 248 0.0 3.5 0.00 0.00 0.00 62 1007.5